GW5630 Weather Reports


Display with metric or nautical units.
time (UTC)temp
F
wind
direction
speed
MPH
gust
MPH
rain 1hr
in
rain 24hr
in
rain mn
in
humidity
%
barometer
mb
20260506135008 58 248 3.0 8.0 0.08 0.15 0.15 89 1008.3
20260506134528 58 270 2.0 7.0 0.10 0.15 0.15 88 1008.2
20260506134004 58 226 1.0 9.0 0.11 0.15 0.15 88 1008.2
20260506133505 58 269 4.0 9.0 0.11 0.14 0.14 88 1008.3
20260506133015 58 257 4.0 7.0 0.11 0.14 0.14 88 1008.5
20260506132511 58 241 3.0 7.0 0.11 0.13 0.13 88 1008.7
20260506132010 58 218 2.0 7.0 0.11 0.12 0.12 87 1008.7
20260506131520 58 244 2.0 7.0 0.11 0.11 0.11 86 1008.7
20260506131010 58 265 2.0 7.0 0.10 0.10 0.10 86 1008.7
20260506130506 58 234 4.0 8.0 0.09 0.09 0.09 86 1008.8
20260506130025 58 235 3.0 8.0 0.08 0.08 0.08 85 1008.8
20260506125510 58 255 4.0 7.0 0.07 0.07 0.07 84 1008.9
20260506125010 59 243 4.0 7.0 0.07 0.07 0.07 84 1008.9
20260506124525 59 224 4.0 8.0 0.05 0.05 0.05 83 1009.0
20260506124010 59 257 5.0 8.0 0.04 0.04 0.04 82 1008.9
20260506123510 60 273 3.0 9.0 0.03 0.03 0.03 81 1008.9
20260506123010 60 253 4.0 9.0 0.03 0.03 0.03 80 1008.9
20260506122506 60 261 4.0 7.0 0.02 0.02 0.02 78 1008.8
20260506122011 60 240 5.0 7.0 0.01 0.01 0.01 77 1008.8
20260506121523 61 250 2.0 9.0 0.00 0.00 0.00 76 1008.7
20260506121007 61 262 4.0 9.0 0.00 0.00 0.00 76 1008.7
20260506120507 61 254 4.0 9.0 0.00 0.00 0.00 75 1008.6
20260506120033 61 236 4.0 9.0 0.00 0.00 0.00 74 1008.7
20260506115511 61 244 3.0 8.0 0.00 0.00 0.00 73 1008.6
20260506115009 62 225 3.0 8.0 0.00 0.00 0.00 73 1008.5
20260506114526 62 256 4.0 8.0 0.00 0.00 0.00 72 1008.5
20260506114012 62 201 2.0 8.0 0.00 0.00 0.00 71 1008.5
20260506113509 62 232 4.0 8.0 0.00 0.00 0.00 70 1008.4
20260506113030 62 252 3.0 8.0 0.00 0.00 0.00 70 1008.3
20260506112510 62 250 1.0 9.0 0.00 0.00 0.00 70 1008.3
20260506112015 62 230 5.0 10.0 0.00 0.00 0.00 68 1008.3
20260506111516 63 227 3.0 10.0 0.00 0.00 0.00 67 1008.3
20260506111010 63 254 3.0 7.0 0.00 0.00 0.00 67 1008.3
20260506110504 63 238 3.0 9.0 0.00 0.00 0.00 66 1008.2
20260506110020 63 259 4.0 9.0 0.00 0.00 0.00 66 1008.1
20260506105505 63 246 2.0 8.0 0.00 0.00 0.00 66 1008.1
20260506105008 63 221 3.0 8.0 0.00 0.00 0.00 65 1008.1
20260506104523 63 263 4.0 8.0 0.00 0.00 0.00 65 1008.0
20260506104009 63 259 4.0 7.0 0.00 0.00 0.00 65 1008.0
20260506103511 63 243 3.0 8.0 0.00 0.00 0.00 64 1007.9
20260506103026 63 246 3.0 8.0 0.00 0.00 0.00 64 1007.7
20260506102509 63 225 3.0 9.0 0.00 0.00 0.00 63 1007.7
20260506102010 63 265 2.0 9.0 0.00 0.00 0.00 63 1007.7
20260506101528 64 249 3.0 6.0 0.00 0.00 0.00 62 1007.6
20260506101010 64 242 3.0 8.0 0.00 0.00 0.00 62 1007.6
20260506100508 64 252 2.0 8.0 0.00 0.00 0.00 61 1007.7
20260506100018 64 257 3.0 8.0 0.00 0.00 0.00 61 1007.6
20260506095507 64 232 4.0 8.0 0.00 0.00 0.00 60 1007.6
20260506095005 64 238 3.0 8.0 0.00 0.00 0.00 60 1007.7
20260506094524 64 266 2.0 8.0 0.00 0.00 0.00 60 1007.8
20260506094011 64 263 4.0 8.0 0.00 0.00 0.00 59 1007.8
20260506093511 64 229 2.0 6.0 0.00 0.00 0.00 59 1007.8
20260506093024 64 223 2.0 7.0 0.00 0.00 0.00 59 1007.9
20260506092507 64 227 3.0 8.0 0.00 0.00 0.00 58 1008.0
20260506092011 64 246 4.0 8.0 0.00 0.00 0.00 58 1008.0
20260506091531 64 244 3.0 8.0 0.00 0.00 0.00 58 1007.9
20260506091009 64 232 4.0 8.0 0.00 0.00 0.00 58 1008.1
20260506090509 64 226 3.0 8.0 0.00 0.00 0.00 57 1008.0
20260506090041 64 221 4.0 8.0 0.00 0.00 0.00 57 1008.1
20260506085512 64 234 5.0 9.0 0.00 0.00 0.00 57 1008.0
20260506085008 64 226 5.0 9.0 0.00 0.00 0.00 56 1007.9
20260506084523 65 225 5.0 8.0 0.00 0.00 0.00 56 1008.1
20260506084009 65 227 4.0 9.0 0.00 0.00 0.00 55 1008.1
20260506083509 65 228 5.0 11.0 0.00 0.00 0.00 55 1008.0
20260506083028 65 228 5.0 10.0 0.00 0.00 0.00 55 1008.1
20260506082502 65 236 7.0 9.0 0.00 0.00 0.00 54 1008.0
20260506082001 65 259 5.0 9.0 0.00 0.00 0.00 54 1008.1
20260506081510 65 255 4.0 9.0 0.00 0.00 0.00 54 1008.1
20260506081005 65 242 5.0 9.0 0.00 0.00 0.00 53 1008.1
20260506080503 65 254 6.0 10.0 0.00 0.00 0.00 53 1008.0
20260506073508 65 233 6.0 10.0 0.00 0.00 0.00 51 1008.1
20260506073022 65 239 6.0 9.0 0.00 0.00 0.00 51 1008.0
20260506072513 65 238 4.0 9.0 0.00 0.00 0.00 50 1008.0
20260506072001 65 227 5.0 9.0 0.00 0.00 0.00 50 1008.2
20260506071507 66 232 4.0 11.0 0.00 0.00 0.00 50 1008.2
20260506071001 66 246 4.0 11.0 0.00 0.00 0.00 50 1008.3
20260506070502 66 263 6.0 11.0 0.00 0.00 0.00 49 1008.3
20260506062508 66 246 5.0 10.0 0.00 0.00 0.00 47 1008.9
20260506062010 66 232 5.0 10.0 0.00 0.00 0.00 48 1009.0
20260506061543 66 245 4.0 9.0 0.00 0.00 0.00 47 1009.1
20260506061001 66 251 5.0 9.0 0.00 0.00 0.00 47 1009.1
20260506060504 66 267 5.0 9.0 0.00 0.00 0.00 46 1009.1
20260506051009 66 257 6.0 8.0 0.00 0.00 0.00 45 1009.6
20260506050511 66 229 5.0 8.0 0.00 0.00 0.00 45 1009.6
20260506045002 67 248 5.0 9.0 0.00 0.00 0.00 45 1009.6
20260506044520 67 234 4.0 7.0 0.00 0.00 0.00 45 1009.6
20260506044007 67 261 3.0 9.0 0.00 0.00 0.00 45 1009.5
20260506043503 67 241 5.0 9.0 0.00 0.00 0.00 45 1009.5
20260506043034 67 249 4.0 8.0 0.00 0.00 0.00 45 1009.5
20260506042507 67 245 4.0 8.0 0.00 0.00 0.00 45 1009.6
20260506042008 67 250 4.0 8.0 0.00 0.00 0.00 44 1009.6
20260506041526 67 246 4.0 6.0 0.00 0.00 0.00 44 1009.6
20260506041007 67 247 4.0 8.0 0.00 0.00 0.00 44 1009.7
20260506040512 67 255 3.0 8.0 0.00 0.00 0.00 44 1009.7
20260506040025 67 254 5.0 7.0 0.00 0.00 0.00 44 1009.6
20260506035506 68 236 4.0 8.0 0.00 0.00 0.00 44 1009.7
20260506035016 68 248 4.0 8.0 0.00 0.00 0.00 44 1009.7
20260506034512 68 249 4.0 8.0 0.00 0.00 0.00 44 1009.8
20260506034001 68 250 5.0 8.0 0.00 0.00 0.00 43 1009.8
20260506033505 68 254 3.0 7.0 0.00 0.00 0.00 43 1009.7
20260506033018 68 257 3.0 7.0 0.00 0.00 0.00 43 1009.7
20260506032503 68 261 4.0 7.0 0.00 0.00 0.00 44 1009.7
20260506032008 68 235 4.0 7.0 0.00 0.00 0.00 43 1009.7
20260506031524 68 234 3.0 7.0 0.00 0.00 0.00 44 1009.6
20260506031011 68 242 3.0 7.0 0.00 0.00 0.00 43 1009.6
20260506030507 68 227 3.0 7.0 0.00 0.00 0.00 44 1009.6
20260506030027 68 240 3.0 6.0 0.00 0.00 0.00 44 1009.7
20260506025509 67 254 2.0 6.0 0.00 0.00 0.00 44 1009.7
20260506025011 67 285 3.0 6.0 0.00 0.00 0.00 44 1009.7
20260506024540 67 254 1.0 3.0 0.00 0.00 0.00 44 1009.7
20260506024014 67 260 1.0 3.0 0.00 0.00 0.00 45 1009.7
20260506023513 67 297 1.0 3.0 0.00 0.00 0.00 45 1009.7
20260506023015 67 257 1.0 3.0 0.00 0.00 0.00 44 1009.7
20260506022508 67 293 0.0 1.0 0.00 0.00 0.00 44 1009.7
20260506022004 68 279 0.0 1.0 0.00 0.00 0.00 44 1009.8
20260506021521 68 277 0.0 2.0 0.00 0.00 0.00 43 1009.7
20260506021012 69 277 0.0 2.0 0.00 0.00 0.00 43 1009.7
20260506020509 69 277 0.0 2.0 0.00 0.00 0.00 42 1009.8
20260506020024 70 277 0.0 2.0 0.00 0.00 0.00 41 1009.9
20260506015509 70 278 0.0 2.0 0.00 0.00 0.00 41 1009.8
20260506015009 70 258 0.0 2.0 0.00 0.00 0.00 40 1009.7
20260506014530 71 261 0.0 3.0 0.00 0.00 0.00 40 1009.6
20260506014010 71 249 1.0 5.0 0.00 0.00 0.00 39 1009.6
20260506013512 71 252 3.0 5.0 0.00 0.00 0.00 39 1009.6
20260506013025 71 272 1.0 5.0 0.00 0.00 0.00 39 1009.5
20260506012510 72 242 1.0 4.0 0.00 0.00 0.00 40 1009.5
20260506012007 72 252 0.0 7.0 0.00 0.00 0.00 40 1009.3
20260506011515 72 249 3.0 7.0 0.00 0.00 0.00 39 1009.3
20260506011006 72 264 2.0 7.0 0.00 0.00 0.00 39 1009.2
20260506010502 72 242 4.0 8.0 0.00 0.00 0.00 38 1009.0
20260506010006 72 267 3.0 8.0 0.00 0.00 0.00 39 1009.0
20260506005502 72 212 3.0 8.0 0.00 0.00 0.00 39 1009.0
20260506005002 73 254 4.0 8.0 0.00 0.00 0.00 38 1008.8
20260506004506 73 323 2.0 7.0 0.00 0.00 0.00 39 1008.8
20260506004004 73 245 3.0 6.0 0.00 0.00 0.00 39 1008.8
20260506003504 73 257 3.0 6.0 0.00 0.00 0.00 39 1008.8
20260506003008 73 248 2.0 4.0 0.00 0.00 0.00 39 1008.7
20260506002506 73 260 2.0 6.0 0.00 0.00 0.00 39 1008.7
20260506002005 73 232 1.0 7.0 0.00 0.00 0.00 40 1008.6
20260506001527 73 236 3.0 7.0 0.00 0.00 0.00 39 1008.6
20260506001006 73 246 3.0 10.0 0.00 0.00 0.00 39 1008.5
20260506000503 73 257 6.0 10.0 0.00 0.00 0.00 39 1008.4
20260506000019 73 244 3.0 9.0 0.00 0.00 0.00 39 1008.3
20260505235507 74 248 5.0 9.0 0.00 0.00 0.00 39 1008.3
20260505235003 74 254 6.0 9.0 0.00 0.00 0.00 39 1008.2
20260505234503 74 220 5.0 10.0 0.00 0.00 0.00 39 1008.3
20260505234004 74 212 3.0 12.0 0.00 0.00 0.00 39 1008.2
20260505233504 74 230 6.0 12.0 0.00 0.00 0.00 39 1008.1
20260505233006 74 250 3.0 8.0 0.00 0.00 0.00 40 1008.1
20260505232507 74 266 4.0 9.0 0.00 0.00 0.00 40 1008.2
20260505232006 74 269 3.0 9.0 0.00 0.00 0.00 39 1008.1
20260505231510 74 227 4.0 11.0 0.00 0.00 0.00 39 1008.1
20260505231008 74 239 7.0 11.0 0.00 0.00 0.00 38 1008.1
20260505230505 74 257 3.0 10.0 0.00 0.00 0.00 39 1008.1
20260505230018 74 266 6.0 10.0 0.00 0.00 0.00 39 1008.0
20260505225508 74 263 5.0 11.0 0.00 0.00 0.00 39 1008.0
20260505225004 74 244 4.0 11.0 0.00 0.00 0.00 39 1008.1
20260505224520 74 263 6.0 14.0 0.00 0.00 0.00 39 1008.1
20260505224003 74 253 8.0 14.0 0.00 0.00 0.00 39 1008.0
20260505223503 74 244 6.0 13.0 0.00 0.00 0.00 40 1008.1
20260505223004 74 260 3.0 9.0 0.00 0.00 0.00 41 1007.9
20260505222504 74 239 4.0 9.0 0.00 0.00 0.00 41 1007.9
20260505222005 74 258 3.0 9.0 0.00 0.00 0.00 41 1008.0
20260505221508 74 249 4.0 8.0 0.00 0.00 0.00 40 1008.1
20260505221004 74 257 4.0 7.0 0.00 0.00 0.00 41 1008.0
20260505220503 74 250 3.0 7.0 0.00 0.00 0.00 41 1008.0
20260505220014 74 261 3.0 9.0 0.00 0.00 0.00 41 1007.9
20260505215506 74 218 4.0 10.0 0.00 0.00 0.00 41 1007.9
20260505215006 74 243 6.0 13.0 0.00 0.00 0.00 40 1007.8
20260505214524 74 247 6.0 13.0 0.00 0.00 0.00 40 1007.9
20260505214008 74 263 4.0 10.0 0.00 0.00 0.00 41 1007.8
20260505213507 74 236 4.0 8.0 0.00 0.00 0.00 41 1007.8
20260505213024 74 250 5.0 12.0 0.00 0.00 0.00 40 1007.8
20260505212503 74 246 3.0 12.0 0.00 0.00 0.00 40 1007.8
20260505212003 74 242 7.0 12.0 0.00 0.00 0.00 40 1007.8
20260505211508 74 227 8.0 15.0 0.00 0.00 0.00 39 1007.7
20260505211004 75 286 7.0 15.0 0.00 0.00 0.00 39 1007.7
20260505210508 75 242 4.0 11.0 0.00 0.00 0.00 40 1007.7
20260505210012 75 260 5.0 13.0 0.00 0.00 0.00 39 1007.6
20260505205505 75 240 5.0 13.0 0.00 0.00 0.00 39 1007.6
20260505205007 75 244 0.0 5.0 0.00 0.00 0.00 40 1007.6
20260505204517 75 236 0.0 0.0 0.00 0.00 0.00 38 1007.6
20260505204008 76 225 0.0 2.0 0.00 0.00 0.00 38 1007.6
20260505203509 76 227 0.0 16.0 0.00 0.00 0.00 38 1007.4
20260505203022 76 247 0.0 16.0 0.00 0.00 0.00 37 1007.5
20260505202508 76 234 6.0 12.0 0.00 0.00 0.00 38 1007.5
20260505202008 77 236 4.0 13.0 0.00 0.00 0.00 37 1007.3
20260505201510 77 225 6.0 16.0 0.00 0.00 0.00 38 1007.7
20260505201004 78 232 8.0 14.0 0.00 0.00 0.00 37 1007.6
20260505200505 78 229 8.0 15.0 0.00 0.00 0.00 37 1007.7
20260505200008 78 232 6.0 15.0 0.00 0.00 0.00 36 1007.6
20260505195508 78 253 6.0 12.0 0.00 0.00 0.00 36 1007.6
20260505195006 79 225 4.0 12.0 0.00 0.00 0.00 37 1007.7
20260505194527 79 232 6.0 12.0 0.00 0.00 0.00 36 1007.7
20260505194006 79 236 5.0 11.0 0.00 0.00 0.00 35 1007.5
20260505193510 79 213 4.0 11.0 0.00 0.00 0.00 38 1007.6
20260505193018 79 189 4.0 13.0 0.00 0.00 0.00 37 1007.6
20260505192516 79 215 2.0 13.0 0.00 0.00 0.00 39 1007.6
20260505192009 79 252 7.0 13.0 0.00 0.00 0.00 36 1007.7
20260505191526 79 232 6.0 14.0 0.00 0.00 0.00 36 1007.9
20260505191007 79 243 8.0 14.0 0.00 0.00 0.00 35 1007.9
20260505190503 78 261 7.0 13.0 0.00 0.00 0.00 36 1007.9
20260505190007 78 238 7.0 13.0 0.00 0.00 0.00 38 1008.1
20260505185507 77 237 6.0 12.0 0.00 0.00 0.00 36 1008.2
20260505185010 77 232 5.0 11.0 0.00 0.00 0.00 40 1008.3
20260505184514 76 273 6.0 14.0 0.00 0.00 0.00 39 1008.3
20260505184006 77 249 3.0 14.0 0.00 0.00 0.00 36 1008.5
20260505183507 77 241 7.0 13.0 0.00 0.00 0.00 36 1008.3
20260505183027 77 246 4.0 14.0 0.00 0.00 0.00 37 1008.5
20260505182511 77 249 9.0 15.0 0.00 0.00 0.00 35 1008.7
20260505182010 77 246 10.0 16.0 0.00 0.00 0.00 35 1008.7
20260505181524 77 264 7.0 16.0 0.00 0.00 0.00 36 1008.8
20260505181009 78 241 5.0 11.0 0.00 0.00 0.00 38 1008.7
20260505180508 78 248 7.0 15.0 0.00 0.00 0.00 39 1008.8
20260505180026 78 250 4.0 15.0 0.00 0.00 0.00 39 1008.9
20260505175510 78 257 9.0 15.0 0.00 0.00 0.00 36 1008.8
20260505175005 78 217 9.0 15.0 0.00 0.00 0.00 37 1008.8
20260505174509 78 229 8.0 15.0 0.00 0.00 0.00 38 1008.7
20260505174006 78 227 4.0 18.0 0.00 0.00 0.00 40 1008.8
20260505173509 77 248 7.0 18.0 0.00 0.00 0.00 40 1009.0
20260505173017 77 273 6.0 12.0 0.00 0.00 0.00 39 1008.8
20260505172505 77 212 7.0 15.0 0.00 0.00 0.00 40 1008.7
20260505172005 77 254 11.0 15.0 0.00 0.00 0.00 39 1008.7
20260505171521 77 234 9.0 15.0 0.00 0.00 0.00 40 1009.0
20260505171006 77 251 7.0 15.0 0.00 0.00 0.00 40 1009.0
20260505170507 77 252 7.0 13.0 0.00 0.00 0.00 40 1009.1
20260505170022 77 213 4.0 10.0 0.00 0.00 0.00 41 1009.0
20260505165509 77 273 5.0 15.0 0.00 0.00 0.00 39 1009.2
20260505165008 77 247 8.0 13.0 0.00 0.00 0.00 41 1009.3
20260505164526 78 267 3.0 14.0 0.00 0.00 0.00 41 1009.3
20260505164011 78 223 4.0 14.0 0.00 0.00 0.00 43 1009.4
20260505163507 78 253 3.0 8.0 0.00 0.00 0.00 41 1009.6
20260505163026 77 266 5.0 11.0 0.00 0.00 0.00 40 1009.5
20260505162505 77 234 5.0 11.0 0.00 0.00 0.00 41 1009.6
20260505162010 77 241 3.0 12.0 0.00 0.00 0.00 42 1009.6
20260505161519 76 244 7.0 11.0 0.00 0.00 0.00 43 1009.7
20260505161007 76 265 5.0 11.0 0.00 0.00 0.00 42 1009.6
20260505160514 76 321 5.0 13.0 0.00 0.00 0.00 43 1009.6
20260505153010 75 222 5.0 12.0 0.00 0.00 0.00 46 1010.0
20260505152506 74 223 8.0 11.0 0.00 0.00 0.00 47 1010.0
20260505152011 74 257 4.0 11.0 0.00 0.00 0.00 48 1010.1
20260505151528 74 232 3.0 9.0 0.00 0.00 0.00 49 1010.0
20260505151007 74 227 5.0 13.0 0.00 0.00 0.00 49 1010.0
20260505150507 74 263 7.0 13.0 0.00 0.00 0.00 48 1010.0
20260505140507 71 251 3.0 9.0 0.00 0.00 0.00 52 1010.3